Change the Weather History Date:

Saturday, December 22, 2012

  Actual Average Record
Temperature  
Mean Temperature 37 °F 32 °F  
Max Temperature 39 °F 40 °F 69 °F (2013)
Min Temperature 35 °F 25 °F 7 °F (2000)
Degree Days  
Heating Degree Days 28 33  
Month to date heating degree days 488 658  
Since 1 July heating degree days 1518 1663  
Cooling Degree Days 0 0  
Month to date cooling degree days 0 0  
Year to date cooling degree days 1276 969  
Moisture  
Dew Point 21 °F    
Average Humidity 52    
Maximum Humidity 56    
Minimum Humidity 48    
Precipitation  
Precipitation 0.00 in 0.10 in 0.51 in (2006)
Month to date precipitation 1.60 2.17  
Year to date precipitation 36.68 38.57  
Sea Level Pressure  
Sea Level Pressure 29.86 in    
Wind  
Wind Speed 25 mph (WNW)    
Max Wind Speed 37 mph    
Max Gust Speed 49 mph    
Visibility 10 miles    
Events      
T = Trace of Precipitation, MM = Missing Value Source: NWS Daily Summary

Daily Weather History Graph

Daily Weather History Graph

Search for Another Location

Airport or City:

Trip Planner

Search our weather history database for the weather conditions in past years. The results will help you decide how hot, cold, wet, or windy it might be!

Date:

Astronomy

Dec. 22, 2012 Rise Set
Actual Time 7:29 AM EST 4:50 PM EST
Civil Twilight 6:58 AM EST 5:21 PM EST
Nautical Twilight 6:24 AM EST 5:54 PM EST
Astronomical Twilight 5:51 AM EST 6:27 PM EST
Moon 1:06 PM EST (12/22) 2:12 AM EST (12/22)
Length of Visible Light 10h 22m
Length of Day
9h 21m
Waxing Gibbous, 73% of the Moon is Illuminated
Dec 22
Waxing Gibbous
Dec 28
Full
Jan 4
Last Quarter
Jan 11
New
Jan 18
First Quarter

Hourly Weather History & Observations

Time (EST) Temp. Windchill Dew Point Humidity Pressure Visibility Wind Dir Wind Speed Gust Speed Precip Events Conditions
12:53 AM 36.0 °F 25.0 °F 21.9 °F 57% 29.58 in 10.0 mi West 20.7 mph 27.6 mph N/A   Overcast
1:53 AM 36.0 °F 25.3 °F 21.9 °F 57% 29.59 in 10.0 mi WNW 19.6 mph 34.5 mph N/A   Overcast
2:53 AM 36.0 °F 23.9 °F 21.9 °F 57% 29.63 in 10.0 mi WNW 25.3 mph 36.8 mph N/A   Overcast
3:53 AM 36.0 °F 23.9 °F 21.0 °F 55% 29.66 in 10.0 mi WNW 25.3 mph 34.5 mph N/A   Overcast
4:53 AM 35.1 °F 23.0 °F 21.9 °F 59% 29.68 in 10.0 mi WNW 24.2 mph 39.1 mph N/A   Overcast
5:53 AM 35.1 °F 23.3 °F 21.9 °F 59% 29.72 in 10.0 mi WNW 23.0 mph 39.1 mph N/A   Overcast
6:53 AM 35.1 °F 22.0 °F 21.0 °F 57% 29.76 in 10.0 mi WNW 28.8 mph 39.1 mph N/A   Overcast
7:53 AM 35.1 °F 22.2 °F 19.9 °F 54% 29.79 in 10.0 mi WNW 27.6 mph 36.8 mph N/A   Overcast
8:53 AM 35.1 °F 22.7 °F 19.9 °F 54% 29.84 in 10.0 mi WNW 25.3 mph 40.3 mph N/A   Overcast
9:53 AM 35.1 °F 21.4 °F 19.9 °F 54% 29.87 in 10.0 mi WNW 32.2 mph 41.4 mph N/A   Overcast
10:53 AM 37.0 °F 25.9 °F 21.0 °F 52% 29.89 in 10.0 mi WNW 23.0 mph 32.2 mph N/A   Overcast
11:53 AM 37.0 °F 25.1 °F 21.0 °F 52% 29.88 in 10.0 mi WNW 26.5 mph 40.3 mph N/A   Overcast
12:53 PM 37.9 °F 25.5 °F 21.0 °F 51% 29.89 in 10.0 mi WNW 31.1 mph 42.6 mph N/A   Overcast
1:53 PM 37.9 °F 26.3 °F 19.9 °F 48% 29.89 in 10.0 mi WNW 26.5 mph 44.9 mph N/A   Mostly Cloudy
2:53 PM 37.0 °F 25.6 °F 19.9 °F 50% 29.91 in 10.0 mi WNW 24.2 mph 36.8 mph N/A   Partly Cloudy
3:53 PM 36.0 °F 23.7 °F 19.9 °F 52% 29.95 in 10.0 mi WNW 26.5 mph 41.4 mph N/A   Clear
4:53 PM 34.0 °F 23.8 °F 19.9 °F 56% 29.99 in 10.0 mi West 16.1 mph 26.5 mph N/A   Partly Cloudy
5:53 PM 34.0 °F 24.2 °F 21.0 °F 59% 30.00 in 10.0 mi WNW 15.0 mph - N/A   Clear
6:53 PM 34.0 °F 24.2 °F 21.9 °F 61% 30.01 in 10.0 mi WNW 15.0 mph - N/A   Overcast
7:53 PM 33.1 °F 26.1 °F 21.0 °F 61% 30.03 in 10.0 mi West 8.1 mph - N/A   Mostly Cloudy
8:53 PM 32.0 °F 21.6 °F 19.9 °F 61% 30.03 in 10.0 mi WNW 15.0 mph - N/A   Clear
9:53 PM 30.0 °F 20.5 °F 19.9 °F 66% 30.04 in 10.0 mi West 11.5 mph - N/A   Clear
10:53 PM 30.9 °F 22.8 °F 19.0 °F 61% 30.04 in 10.0 mi West 9.2 mph - N/A   Clear
11:53 PM 30.0 °F 23.2 °F 19.0 °F 64% 30.05 in 10.0 mi West 6.9 mph - N/A   Partly Cloudy